Погода в Приаргунске

Погода в Приаргунске : погода сейчас, прогноз погоды и архив. Всё, что Вы хотите узнать о погоде в Приаргунске!

Хотите узнать прогноз погоды в Приаргунске? Тогда Вам сюда: Погода в Приаргунске

Поиск расширенной информации на нашем сайте:

Другие новости

Новости СМИ2

Главная страница сайта

Новости сайта

03.07.2017

Напоминаем, что на нашем специализированном сайте Метеоцентр.Азия вы можете получить высокодетализированные автоматические прогнозы погоды по пунктам России, СНГ и мира в авиационном формате (включающие направление и скорость ветра, видимость, явления погоды, количество и форму облачности, нижнюю и верхнюю границу облачности).

Рекомендуем: матрасы Поролоновые Спб

Погода в Приаргунске - сегодня

Время (UTC), дата Ветер
(°,м/с) 
Видим.   Явления Облачность Т
(°С)
Тd
(°С)
f(%) Тe
(°С)
Pmin
(гПа)
dP
(гПа)
Po
(мм)
O2
(г/м3)
Тmin Tmax R s Состояние
почвы
12 20.08.17 140 (ЮВ) 20000 м  слаб. ливневой дождь{гроза}  10/10 600 м кучево-дожд. 
[Cb cap]
+19.6 +18.2 92 +37  995.7  -1.5  703  260    +27.6  10     
15 20.08.17 160 (Ю) 5{15}  20000 м  гроза без осадков  9/9 600 м кучево-дожд. 
[Cb cap]
+19.7 +17.2 85 +35  995.1  -1.5  703  260           
18 20.08.17 190 (Ю) 20000 м  {гроза}  10/10 600 м кучево-дожд. 
[Cb cap]
+19.5 +17.3 87 +36  994.5  -0.6  702  260           
21 20.08.17 180 (Ю) 20000 м    8/3 600 м кучево-дожд., средняя 
[Cb cap|Ac trans]
+16.4 +15.5 94 +28  995.9  0.6  703  264           
00 21.08.17 220 (ЮЗ) 20000 м    ясно 
+17.8 +11.7 67 +23  996.7  0.9  704  264  +14.8        влажная 
03 21.08.17 200 (Ю) 10-14{14}  20000 м    6/3 600 м кучево-дожд., средняя 
[Cb cap|Ac trans]
+20.4 +10 51 +23  996.5  0.2  704  262           
06 21.08.17 240 (ЮЗ) 8-13{15}  20000 м    6/6 600 м 
+19.6 +9.6 52 +22  997.4  0.7  704  263           
09 21.08.17 220 (ЮЗ) 8-11{16}  20000 м    10/6 600 м кучево-дожд., средняя 
[Cb cap|Ac trans]
+18.1 +10 59 +20  997.9  0.2  705  264           
12 21.08.17 230 (ЮЗ) 4{13}  20000 м    10/8 600 м кучево-дожд., средняя 
[Cb cap|Ac trans]
+14.4 +8.9 70 +15  999.7  0.9  705  268    +21.7       
15 21.08.17 230 (ЮЗ) н/о    н/о 
+12.9 +8.4 74 +12  1000.5  0.4  706  270           
18 21.08.17 250 (З) н/о    н/о 
+12.9 +7.6 70 +12  1001.4  0.8  706  270           
21 21.08.17 230 (ЮЗ) 20000 м    10/10 600 м кучево-дожд. 
[Cb cap|Ac trans]
+11.4 +7.3 76 +10  1002.6  0.8  707  272           
00 22.08.17 220 (ЮЗ) 8-11{11}  20000 м    10/9 600 м кучево-дожд., средняя 
[Cb cap|As trans]
+14.5 +8.5 67 +13  1003.1  1.1  708  269  +11.2        сухая 
03 22.08.17 240 (ЮЗ) 9-12{15}  20000 м  дым  9/3 600 м кучево-дожд., средняя 
[Cb cap|Ac trans]
+19 +9 52 +20  1003.2  708  265           
06 22.08.17 250 (З) 8-10{20}  20000 м    9/5 600 м кучево-дожд., средняя 
[Cb cap|Ac trans]
+19.6 +8.3 48 +20  1003.9  0.7  709  265           
09 22.08.17 270 (З) 6{16}  20000 м  дым  8/3 600 м кучево-дожд., средняя 
[Cb cap|Ac trans]
+19.6 +8.6 49 +20  1004.8  0.9  710  265           
12 22.08.17 250 (З) 20000 м  дым  3/3 2000 м средняя 
[Ac trans]
+14.6 +9.2 70 +15  1007.2  1.3  711  270    +21.2       
15 22.08.17 250 (З) 20000 м  дым  ясно 
+15.1 +8.7 66 +15  1007.3  0.1  711  270           
18 22.08.17 200 (Ю) 20000 м    ясно 
+11.4 +8.1 80 +13  1008.3  0.3  711  273           
21 22.08.17 110 (В) 20000 м    3/0 верхняя 
[Ci fib]
+9.1 +7.3 88 +10  1009.1  0.3  711  276           
00 23.08.17 230 (ЮЗ) 20000 м    9/9 2000 м средняя 
[Ac trans]
+12.1 +9 81 +14  1008.3  0.1  711  273  +7.7        сухая 
03 23.08.17 280 (З) 20000 м  слаб. ливневой дождь  10/8 600 м кучево-дожд., средняя 
[Cb cap|As op]
+13.8 +10.2 79 +17  1006.9  -1  710  270           
06 23.08.17 110 (В) 20000 м  {ливн. осадки}  10/6 600 м кучево-дожд., средняя 
[Cb cap|As op]
+14.8 +11.9 83 +21  1004.7  -1.8  709  269           
09 23.08.17 080 (В) 10 км  дым{ливн. осадки}  10/8 600 м кучево-дожд., средняя 
[Cb cap|As op]
+14.2 +12.4 89 +21  1003.1  -1.6  708  269           
12 23.08.17 230 (ЮЗ) 20000 м  гроза без осадков{ливн. осадки}  10/10 600 м кучево-дожд. 
[Cb cap]
+13.4 +11.9 91 +19  1001.3  -1.8  706  269    +15.2     
Время (UTC), дата Ветер
(°,м/с) 
Видим.   Явления Облачность Т
(°С)
Тd
(°С)
f(%) Тe
(°С)
Pmin
(гПа)
dP
(гПа)
Po
(мм)
O2
(г/м3)
Тmin Tmax R s Состояние
почвы

Для получения пояснительной информации подведите курсор к названию столбца.

ПОГОДА в Приаргунске - архив

Всё, что Вы хотите узнать о погоде в Приаргунске - удобно и подробно!

Выберите нужную дату (начиная с 1 января 2015* года) и нажмите кнопку "Найти".
Будут отображены архивные сводки погоды по пункту Приаргунск, начиная с указанной даты.


Отображать данные в формате CSV (для использования в таблицах Excel)


Внимание! Наш архив погоды предназначен исключительно для личного некоммерческого использования в познавательных целях. Если Вам необходимы официальные справки о состоянии погоды (для производственных, юридических, коммерческих и т.п. целей), обращайтесь в органы Росгидромета.

*Примечание: данная дата относится к архиву по метеостанциям СССР (Россия, СНГ, Балтия).
Архив по метеостанциям Зарубежной Европы и Азии (кроме Китая) хранится 10 дней, по другим регионам земного шара (Китай, Африка, Америка, Австралия, Океания) - 1 день.

Приаргунск - район местоположения метеостанции


Название, широта, долгота, высота метеостанции:
Приаргунск 50.4°ш. 119.1°д. 521 м над ур. моря [Российская Федерация]

Дополнительная информация

В oтличие oт бoльшинства пoгoдных сайтoв мы публикуем пoдрoбную метеoинфoрмацию в детальнoм прoфессиoнальнoм фoрмате.

Характеристики температуры и влажнoсти вoздуха измеряются на высoте 2 м в тени вдали oт зданий и деревьев.
Скoрoсть ветра измеряется на высoте 10 м (на урoвне рoста челoвека скoрoсть ветра ниже в 1.5-2 раза). Если метеoстанция нахoдится в гoрoде или в лесу, тo скoрoсть ветра занижена на 2-4 м/с пo сравнению с oткрытым местoм. Скoрoсть ветра над акватoриями крупных рек и oзёр, а также на вершинах хoлмoв на 2-5 м/с выше, чем в oбычных услoвиях.
Атмoсфернoе давление в разных тoчках местнoсти мoжет значительнo oтличаться oт давления на метеoстанции, в зависимoсти oт услoвий рельефа (при пoдъёме на 10 м давление пoнижается примернo на 1 мм рт.ст.).